FW7230 Weather Reports


Display with metric or nautical units.
time (UTC)temp
F
wind
direction
speed
MPH
gust
MPH
rain 1hr
in
rain 24hr
in
rain mn
in
humidity
%
barometer
mb
20260831023340 84 195 4.0 8.0 0.00 0.00 0.00 65 1010.8
20260831022324 85 159 3.0 7.0 0.00 0.00 0.00 65 1010.7
20260831021330 85 129 3.0 7.0 0.00 0.00 0.00 65 1010.6
20260831020350 85 167 2.0 6.0 0.00 0.00 0.00 65 1010.7
20260831015316 86 91 2.0 9.0 0.00 0.00 0.00 65 1010.5
20260831014322 86 121 2.0 6.0 0.00 0.00 0.00 64 1010.4
20260831013339 87 72 2.0 5.0 0.00 0.00 0.00 64 1010.3
20260831012322 87 151 2.0 5.0 0.00 0.00 0.00 64 1010.3
20260831011326 88 124 3.0 7.0 0.00 0.00 0.00 63 1010.2
20260831010324 88 117 3.0 6.0 0.00 0.00 0.00 62 1010.2
20260831005325 89 120 3.0 7.0 0.00 0.00 0.00 62 1010.1
20260831004334 89 129 2.0 7.0 0.00 0.00 0.00 60 1010.1
20260831003954 90 143 2.0 7.0 0.00 0.00 0.00 59 1010.1
20260831002328 90 165 2.0 6.0 0.00 0.00 0.00 59 1010.1
20260831001320 91 152 2.0 8.0 0.00 0.00 0.00 58 1010.1
20260831000340 93 194 2.0 4.0 0.00 0.00 0.00 55 1010.1
20260830235326 95 190 3.0 7.0 0.00 0.00 0.00 52 1010.2
20260830234331 96 189 3.0 7.0 0.00 0.00 0.00 52 1010.2
20260830233455 95 201 3.0 8.0 0.00 0.00 0.00 53 1010.2
20260830231328 96 197 3.0 9.0 0.00 0.00 0.00 51 1010.3
20260830230454 97 194 4.0 9.0 0.00 0.00 0.00 51 1010.1
20260830225725 96 163 3.0 12.0 0.00 0.00 0.00 53 1010.0
20260830223455 95 131 3.0 7.0 0.00 0.00 0.00 54 1010.1
20260830222317 95 189 4.0 10.0 0.00 0.00 0.00 54 1010.2
20260830221322 95 196 6.0 14.0 0.00 0.00 0.00 52 1010.2
20260830220318 96 153 4.0 9.0 0.00 0.00 0.00 52 1010.3
20260830215325 97 121 5.0 11.0 0.00 0.00 0.00 51 1010.4
20260830214331 98 159 7.0 12.0 0.00 0.00 0.00 51 1010.4
20260830213328 97 183 6.0 16.0 0.00 0.00 0.00 50 1010.5
20260830212724 97 215 7.0 10.0 0.00 0.00 0.00 51 1010.5
20260830211320 96 218 4.0 13.0 0.00 0.00 0.00 52 1010.6
20260830210319 97 174 7.0 16.0 0.00 0.00 0.00 50 1010.5
20260830205345 97 221 7.0 12.0 0.00 0.00 0.00 49 1010.6
20260830204327 97 194 6.0 12.0 0.00 0.00 0.00 49 1010.6
20260830203326 97 208 9.0 16.0 0.00 0.00 0.00 49 1010.7
20260830202334 97 190 6.0 12.0 0.00 0.00 0.00 51 1010.7
20260830201321 96 172 5.0 12.0 0.00 0.00 0.00 51 1010.7
20260830200341 96 226 6.0 14.0 0.00 0.00 0.00 51 1010.7
20260830195321 96 188 7.0 14.0 0.00 0.00 0.00 52 1010.9
20260830194325 96 155 9.0 13.0 0.00 0.00 0.00 50 1011.0
20260830193322 95 162 6.0 13.0 0.00 0.00 0.00 51 1011.2
20260830192455 94 201 7.0 12.0 0.00 0.00 0.00 53 1011.3
20260830190455 94 194 6.0 13.0 0.00 0.00 0.00 53 1011.4
20260830185336 93 238 7.0 13.0 0.00 0.00 0.00 55 1011.5
20260830184321 91 205 7.0 13.0 0.00 0.00 0.00 57 1011.6
20260830183339 91 221 5.0 11.0 0.00 0.00 0.00 55 1011.7
20260830182320 93 205 8.0 13.0 0.00 0.00 0.00 52 1011.7
20260830181343 94 235 7.0 12.0 0.00 0.00 0.00 51 1011.7
20260830180339 94 215 6.0 14.0 0.00 0.00 0.00 52 1011.8
20260830175319 94 169 6.0 11.0 0.00 0.00 0.00 54 1011.8
20260830174725 93 226 6.0 11.0 0.00 0.00 0.00 55 1011.9
20260830173726 92 186 5.0 11.0 0.00 0.00 0.00 56 1012.2
20260830171325 91 183 6.0 14.0 0.00 0.00 0.00 55 1012.3
20260830170321 90 183 7.0 13.0 0.00 0.00 0.00 56 1012.3
20260830165329 90 194 7.0 11.0 0.00 0.00 0.00 55 1012.4
20260830164317 91 191 6.0 11.0 0.00 0.00 0.00 56 1012.4
20260830163315 90 201 5.0 12.0 0.00 0.00 0.00 56 1012.4
20260830162320 89 186 6.0 14.0 0.00 0.00 0.00 56 1012.5
20260830161323 88 212 5.0 9.0 0.00 0.00 0.00 59 1012.5
20260830160340 88 235 4.0 11.0 0.00 0.00 0.00 58 1012.5
20260830155321 88 129 4.0 11.0 0.00 0.00 0.00 58 1012.5
20260830154325 87 187 4.0 10.0 0.00 0.00 0.00 59 1012.5
20260830153323 87 129 5.0 10.0 0.00 0.00 0.00 58 1012.5
20260830152345 86 118 6.0 9.0 0.00 0.00 0.00 58 1012.5
20260830151317 85 123 5.0 10.0 0.00 0.00 0.00 60 1012.5
20260830150317 85 91 5.0 9.0 0.00 0.00 0.00 63 1012.5
20260830145323 84 84 5.0 11.0 0.00 0.00 0.00 63 1012.5
20260830144329 82 181 2.0 8.0 0.00 0.00 0.00 67 1012.5
20260830143325 81 122 3.0 5.0 0.00 0.00 0.00 66 1012.6
20260830142331 81 124 0.0 5.0 0.00 0.00 0.00 65 1012.6
20260830141340 81 118 3.0 5.0 0.00 0.00 0.00 66 1012.5
20260830140315 79 115 2.0 6.0 0.00 0.00 0.00 70 1012.5
20260830135322 77 68 1.0 4.0 0.00 0.00 0.00 72 1012.4
20260830134727 76 104 1.0 2.0 0.00 0.00 0.00 74 1012.5
20260830133328 76 197 0.0 2.0 0.00 0.00 0.00 75 1012.6
20260830132314 76 293 0.0 2.0 0.00 0.00 0.00 72 1012.9
20260830131321 76 289 1.0 5.0 0.00 0.00 0.00 71 1012.9
20260830130320 76 267 2.0 6.0 0.00 0.00 0.00 70 1012.4
20260830125338 76 211 3.0 7.0 0.00 0.00 0.00 70 1012.2
20260830124323 76 212 2.0 7.0 0.00 0.00 0.00 70 1012.1
20260830123320 76 212 1.0 7.0 0.00 0.00 0.00 71 1012.1
20260830122328 76 136 2.0 7.0 0.00 0.00 0.00 71 1012.0
20260830121314 75 215 3.0 9.0 0.00 0.00 0.00 71 1011.9
20260830120957 76 194 2.0 8.0 0.00 0.00 0.00 71 1011.9
20260830115316 77 194 4.0 8.0 0.00 0.00 0.00 69 1011.9
20260830114328 77 200 5.0 7.0 0.00 0.00 0.00 66 1011.9
20260830113325 77 191 4.0 10.0 0.00 0.00 0.00 67 1012.0
20260830112331 77 174 4.0 10.0 0.00 0.00 0.00 67 1011.9
20260830111319 77 215 2.0 6.0 0.00 0.00 0.00 67 1011.9
20260830110337 78 205 3.0 6.0 0.00 0.00 0.00 66 1012.0
20260830105314 78 208 3.0 8.0 0.00 0.00 0.00 66 1012.1
20260830104320 78 225 4.0 6.0 0.00 0.00 0.00 66 1012.3
20260830103338 78 241 3.0 8.0 0.00 0.00 0.00 67 1012.3
20260830102458 78 197 4.0 9.0 0.00 0.00 0.00 68 1012.2
20260830101324 77 197 3.0 7.0 0.00 0.00 0.00 68 1012.3
20260830100319 77 226 3.0 6.0 0.00 0.00 0.00 69 1012.3
20260830095325 77 219 3.0 8.0 0.00 0.00 0.00 70 1012.3
20260830094316 77 190 4.0 8.0 0.00 0.00 0.00 71 1012.4
20260830093335 76 228 3.0 8.0 0.00 0.00 0.00 74 1012.3
20260830092321 75 235 2.0 6.0 0.00 0.00 0.00 76 1012.3
20260830091327 75 179 0.0 2.0 0.00 0.00 0.00 78 1012.3
20260830090326 75 210 0.0 3.0 0.00 0.00 0.00 79 1012.4
20260830085458 75 197 0.0 3.0 0.00 0.00 0.00 79 1012.2
20260830084325 75 161 0.0 3.0 0.00 0.00 0.00 79 1012.3
20260830083322 75 183 0.0 0.0 0.00 0.00 0.00 79 1012.2
20260830082331 75 173 0.0 0.0 0.00 0.00 0.00 79 1012.1
20260830081318 75 173 0.0 1.0 0.00 0.00 0.00 79 1012.0
20260830080336 75 175 0.0 1.0 0.00 0.00 0.00 79 1012.0
20260830075317 75 173 0.0 1.0 0.00 0.00 0.00 79 1012.0
20260830074323 75 139 0.0 3.0 0.00 0.00 0.00 79 1012.0
20260830073321 75 111 1.0 2.0 0.00 0.00 0.00 79 1012.1
20260830072323 75 176 0.0 3.0 0.00 0.00 0.00 79 1012.1
20260830071728 75 155 0.0 1.0 0.00 0.00 0.00 78 1012.2
20260830070322 75 155 0.0 2.0 0.00 0.00 0.00 78 1012.1
20260830065325 75 190 0.0 1.0 0.00 0.00 0.00 77 1012.2
20260830064333 76 201 0.0 1.0 0.00 0.00 0.00 76 1012.4
20260830063330 76 156 0.0 2.0 0.00 0.00 0.00 76 1012.3
20260830062318 76 204 0.0 3.0 0.00 0.00 0.00 76 1012.3
20260830061322 76 204 1.0 2.0 0.00 0.00 0.00 76 1012.3
20260830060320 76 200 0.0 2.0 0.00 0.00 0.00 75 1012.3
20260830055341 77 200 1.0 3.0 0.00 0.00 0.00 75 1012.2
20260830054346 77 205 1.0 2.0 0.00 0.00 0.00 75 1012.3
20260830053343 77 200 0.0 3.0 0.00 0.00 0.00 74 1012.3
20260830052349 78 181 1.0 3.0 0.00 0.00 0.00 74 1012.3
20260830051335 78 198 1.0 3.0 0.00 0.00 0.00 73 1012.3
20260830050352 79 188 2.0 5.0 0.00 0.00 0.00 72 1012.3
20260830045353 79 195 2.0 8.0 0.00 0.00 0.00 71 1012.2
20260830044340 79 214 3.0 7.0 0.00 0.00 0.00 71 1012.3
20260830043353 80 158 4.0 9.0 0.00 0.00 0.00 71 1012.2
20260830042334 80 219 4.0 8.0 0.00 0.00 0.00 71 1012.3
20260830041338 80 210 3.0 7.0 0.00 0.00 0.00 72 1012.2
20260830040356 80 165 4.0 12.0 0.00 0.00 0.00 72 1012.1
20260830035336 80 152 5.0 11.0 0.00 0.00 0.00 72 1012.1
20260830034345 80 174 3.0 8.0 0.00 0.00 0.00 72 1012.1
20260830033357 81 218 4.0 10.0 0.00 0.00 0.00 72 1012.1
20260830032336 81 177 5.0 11.0 0.00 0.00 0.00 72 1012.1
20260830031339 81 174 5.0 9.0 0.00 0.00 0.00 72 1012.1
20260830030337 81 145 5.0 9.0 0.00 0.00 0.00 73 1012.1
20260830025338 81 153 4.0 8.0 0.00 0.00 0.00 73 1012.1
20260830024401 81 134 5.0 9.0 0.00 0.00 0.00 73 1012.1